Regional Weather Roundup
Issued by NWS Cleveland, OH

Home | Current Version | Previous Version | Text Only | Print | Product List | Glossary Off
Versions: 1 2 3 4 5 6 7 8 9 10 11 12 13 14 15 16 17 18 19 20 21 22 23 24 25 26 27 28 29 30 31 32 33 34 35 36 37 38 39 40 41 42 43 44 45 46 47 48 49 50

000
ASUS41 KCLE 300300
RWRCLE
OHIO REGIONAL WEATHER ROUNDUP
NATIONAL WEATHER SERVICE WILMINGTON, OH
1100 PM EDT SUN MAR 29 2015

NOTE: "FAIR" INDICATES FEW OR NO CLOUDS BELOW 12,000 FEET WITH NO
SIGNIFICANT WEATHER AND/OR OBSTRUCTIONS TO VISIBILITY.

OHZ001>008-015>018-024>027-034-035-043-044-300400-
   NORTHWEST OHIO

CITY           SKY/WX    TMP DP  RH WIND       PRES   REMARKS
DEFIANCE       LGT RAIN  41  33  73 SW14      29.84S
FINDLAY        CLOUDY    41  31  67 S18G26    29.84F
TOLEDO EXPRESS LGT RAIN  40  31  70 SW17G25   29.80F
TOLEDO EXEC    CLOUDY    42  28  57 SW17G37   29.82F
LIMA           CLOUDY    43  30  60 S16G24    29.86F
$$

OHZ009>014-019>023-028>033-038-089-300400-
   NORTHEAST OHIO

CITY           SKY/WX    TMP DP  RH WIND       PRES   REMARKS
CLE-HOPKINS    LGT RAIN  37  32  82 S17G28    29.92F
CLE-LAKEFRONT  LGT RAIN  39  32  76 S22G38    29.89F
CUY CO. ARPT   CLOUDY    41  21  45 SW12G23   29.90S
LORAIN-ELYRIA  CLOUDY    37  33  85 SW18G31   29.89F
ASHTABULA      CLOUDY    42  16  34 SW22G33   29.89F
AKRON-CANTON   FLURRIES  37  32  82 SW15      29.95R
WOOSTER        NOT AVBL
MANSFIELD      CLOUDY    38  32  79 S18       29.90F
YOUNGSTOWN     LGTSLEET  42  18  37 SW20G29   29.92S
$$

OHZ042-051>053-060>062-070>072-077>081-300400-
  SOUTHWEST OHIO

CITY           SKY/WX    TMP DP  RH WIND       PRES   REMARKS
CINC-COVINGTON LGT RAIN  43  37  79 NW10      29.99R
CINC-LUNKEN    LGT RAIN  45  37  73 NW5       30.01R
HAMILTON       CLOUDY    41  40  96 S3        30.00R
DAYTON         NOT AVBL
WRIGHT-PAT AFB NOT AVBL
DAYTON GENERAL CLOUDY    42  34  73 SW7       29.97R
WILMINGTON     LGT RAIN  41  33  73 W6        29.99R
$$

OHZ036-037-039>041-045>050-054>059-063>069-073>076-082>088-300400-
  CENTRAL AND SOUTHEAST OHIO

CITY           SKY/WX    TMP DP  RH WIND       PRES   REMARKS
COLUMBUS       LGT RAIN  42  35  76 SW14G23   29.98S
OSU AIRPORT    CLOUDY    41  34  76 SW12G22   29.97S
BOLTON FIELD   NOT AVBL
RICKENBACK AFB NOT AVBL
NEWARK         LGT RAIN  42  34  73 SW15G35   29.98F
MARION         CLOUDY    40  30  67 S16       29.92F
LANCASTER      LGT RAIN  45  30  55 W17G24    29.99R
ZANESVILLE     CLOUDY    43  26  51 W8        29.99S
NEW PHILLY     LGT RAIN  41  31  67 SW9       30.00S
$$


USA.gov is the U.S. government's official web portal to all federal, state and local government web resources and services.